Location: Oshawa
(43.9000°N, 78.8670°W)
Time: 20:29:26
(UTC-04:00)

Daily predictions for brighter satellites

Satellite Brightness Start Highest point End
(mag) Time Altitude Azimuth Time Altitude Azimuth Time Altitude Azimuth
Cosmos 2278 Rocket 2.4 21:01:52 10° S 21:07:18 50° ESE 21:12:47 10° NE
ERS-1 Rocket 3.1 21:05:35 10° SSE 21:10:33 62° ENE 21:15:32 10° N
Timation 2 Rocket 4.2 21:06:46 10° NNW 21:12:38 52° ENE 21:18:27 10° SE
Cosmos 1844 3.8 21:08:16 10° SSW 21:14:03 85° ESE 21:19:54 10° NNE
ISS -3.3 21:11:00 10° WSW 21:14:14 88° NNW 21:17:31 10° ENE
H-2A R/B 2.7 21:10:49 10° SE 21:14:47 39° ENE 21:18:42 10° N
Cosmos 1140 Rocket 3.8 21:09:51 10° NNW 21:14:54 52° ENE 21:19:56 10° SE
Okean 3 3.9 21:13:00 10° N 21:17:08 45° ENE 21:21:11 10° SSE
Cosmos 407 Rocket 4.1 21:12:06 10° NNW 21:17:19 59° WSW 21:22:31 10° S
APEX 4.3 21:14:48 10° SSE 21:18:27 33° ESE 21:23:04 10° NE
Cosmos 2154 Rocket 4.0 21:13:28 10° S 21:19:34 65° E 21:25:42 10° NNE
Cosmos 1939 Rocket 3.1 21:16:11 10° SSE 21:19:58 53° ENE 21:23:51 10° N
COSMOS 2487 2.5 21:18:00 10° NNW 21:21:38 80° ENE 21:25:14 10° SSE
Cosmos 1238 Rocket 2.9 21:18:21 10° N 21:21:40 51° E 21:25:37 10° SSE
Abrixas 4.0 21:20:56 10° S 21:23:06 18° SE 21:25:17 10° E
YAOGAN 11 4.3 21:19:32 10° SSE 21:24:04 82° WSW 21:28:41 10° NNW
Cosmos 2082 Rocket 2.9 21:20:25 10° NNW 21:25:46 40° ENE 21:30:58 11° SE
SPOT 5 3.6 21:24:06 10° SE 21:29:10 47° ENE 21:34:17 10° N
Cosmos 1452 Rocket 3.7 21:29:22 10° SSW 21:34:37 78° WNW 21:39:57 10° NNE
Lacrosse 5 3.5 21:35:50 10° SSE 21:38:22 14° ESE 21:40:54 10° E
Cosmos 1184 Rocket 2.7 21:35:50 10° S 21:39:09 73° E 21:42:31 10° NNE
Intercosmos 25 3.7 21:38:11 10° SSE 21:41:15 32° E 21:44:09 10° NNE
H-2A R/B 3.8 21:40:13 10° ESE 21:43:48 19° ENE 21:47:21 10° NNE
Cosmos 2297 3.9 21:40:29 10° S 21:45:59 53° ESE 21:51:33 10° NE
MetOp-B 4.3 21:43:39 12° SSE 21:48:34 57° ENE 21:53:49 10° N
Meteor 2-13 Rocket 4.5 21:46:41 10° S 21:52:47 69° E 21:58:54 10° NNE
Cosmos 1606 4.2 21:49:57 10° NNW 21:53:37 38° W 21:57:14 10° SSW
Okean 2 Rocket 3.0 21:49:26 10° S 21:53:49 77° E 21:58:14 10° NNE
BREEZE-M DEB (TANK) 3.1 21:54:22 10° WNW 21:56:12 28° N 21:58:33 10° ENE
EO 1 Delta rocket 4.2 21:51:44 10° N 21:57:44 86° W 22:02:37 10° SSW
Cosmos 1782 Rocket 3.7 21:54:13 10° SSW 21:58:40 78° W 22:03:11 10° N
SPOT 1/Viking Rocket 3.9 21:55:17 16° SE 21:59:12 49° ENE 22:04:14 10° N
USA 229 DEB 3.8 21:54:17 10° NW 22:01:26 76° NE 22:07:00 18° SE
USA 229 3.9 21:54:24 10° NW 22:01:32 75° NE 22:07:06 18° SE
Cosmos 1242 Rocket 2.7 21:57:54 10° NNW 22:01:35 76° W 22:04:46 14° S
Cosmos 1850 Rocket 4.1 21:59:32 10° NNW 22:04:53 78° WSW 22:09:25 14° SSE
COS B Rocket 4.2 22:02:32 10° N 22:06:18 46° W 22:09:41 10° SSW
Cosmos 1975 Rocket 3.7 22:07:31 10° NNW 22:11:45 53° W 22:15:58 10° S
ARGOS 3.3 22:09:05 20° SE 22:12:45 57° ENE 22:18:00 10° N
YAOGAN 6 2.4 22:10:46 22° SSE 22:12:53 83° ENE 22:16:27 10° N
Cosmos 2369 Rocket 4.1 22:14:07 11° E 22:14:07 11° E 22:15:30 10° ENE
OAO 3 Rocket 4.2 22:09:50 10° SW 22:14:01 27° S 22:15:30 23° SE
Lacrosse 5 rocket 1.9 22:11:03 10° S 22:14:28 29° SE 22:17:47 10° ENE
Cosmos 2218 Rocket 4.0 22:08:40 10° S 22:15:00 68° E 22:21:21 10° NNE
BREEZE-M DEB (TANK) 4.2 22:12:57 10° W 22:15:53 48° N 22:23:45 10° ENE
Cosmos 1408 4.4 22:12:52 10° SW 22:16:10 32° WNW 22:19:28 10° NNW
PSLV R/B 3.3 22:16:18 25° S 22:17:50 65° WSW 22:20:47 10° NNW
CZ-4 R/B 4.3 22:13:39 10° NNE 22:18:01 38° E 22:20:06 25° SSE
SL-08 RB Rocket 4.1 22:15:38 24° SE 22:18:10 51° ENE 22:22:42 10° N
Cosmos 1959 Rocket 4.4 22:17:09 10° S 22:23:14 78° E 22:29:21 10° N
Cosmos 1536 Rocket 3.6 22:20:16 10° N 22:24:45 66° E 22:27:02 28° SSE
AVUM R/B 3.3 22:21:19 10° NNW 22:24:52 86° ENE 22:26:05 38° SSE
Gbstr 26 Del rocket 3.5 22:19:33 10° WNW 22:24:52 63° NNE 22:27:30 24° E
CZ-4 SHROUD 3.7 22:23:32 25° S 22:25:05 55° W 22:28:08 10° NNW
Cosmos 1727 Rocket 4.0 22:20:17 10° N 22:26:27 68° E 22:30:27 23° SSE
Cosmos 1331 Rocket 4.2 22:27:09 22° SSE 22:30:09 47° ESE 22:35:05 10° NNE
Landsat 7 4.2 22:28:19 28° SE 22:30:28 48° ENE 22:35:03 10° N
DELTA 2 DEB (DPAF) 4.5 22:34:26 32° SE 22:36:09 51° ENE 22:40:30 10° N
CZ-4C R/B 3.8 22:36:09 35° ESE 22:37:22 48° ENE 22:41:26 10° N
Cosmos 1110 Rocket 3.9 22:35:43 17° S 22:39:43 66° ESE 22:44:53 10° NNE
Cosmos 1833 Rocket 2.8 22:36:22 10° NNW 22:41:58 69° WSW 22:45:06 27° S
Meteor 1-20 Rocket 4.1 22:39:25 24° S 22:42:48 66° E 22:48:16 10° NNE
Cosmos 1400 Rocket 4.5 22:44:16 20° E 22:44:16 20° E 22:46:55 10° NE
Terra 2.2 22:44:32 34° ESE 22:46:10 48° ENE 22:50:45 10° N
SL-8 Rocket 4.5 22:40:03 10° SSW 22:46:13 60° W 22:52:23 10° N
Cosmos 1339 Rocket 4.4 22:40:19 10° N 22:46:31 80° E 22:50:00 28° SSE
NOSS 3-1 (C) 4.2 22:40:46 10° NNW 22:48:11 65° NE 22:53:00 27° ESE
USA 245 4.0 22:46:36 28° SSW 22:48:15 50° W 22:52:36 10° NNW
H-2A R/B 4.3 22:47:52 10° SW 22:50:56 19° W 22:53:59 10° NW
ISS -1.0 22:48:15 10° WNW 22:51:00 25° NNW 22:53:47 10° NE
Cosmos 1025 Rocket 4.3 22:47:41 10° NNE 22:51:25 26° ENE 22:52:00 26° E
Cosmos 2278 Rocket 4.3 22:46:50 10° WSW 22:51:39 28° NW 22:56:31 10° N
DMSP B5D2-2 4.4 22:46:52 10° NNE 22:51:52 44° E 22:53:13 37° SE
USA 234 3.9 22:52:32 10° ENE 22:58:07 31° SE 22:58:07 31° SE
Timation 1 Rocket 4.3 22:52:21 10° SSW 22:58:22 86° WNW 23:04:24 10° NNE
Abrixas 2.8 22:55:46 10° WSW 22:58:22 60° W 22:58:22 60° W
Meteor 1-25 Rocket 4.5 22:58:34 17° SSW 23:03:11 73° WNW 23:09:01 10° N
CZ-4B R/B 3.9 22:59:35 10° N 23:04:25 57° WNW 23:08:19 15° SSW
Cosmos 1300 Rocket 3.5 23:04:46 47° S 23:06:02 84° E 23:10:30 10° N
Cosmos 1486 Rocket 4.0 23:02:15 10° NNW 23:07:38 86° ENE 23:09:20 45° SSE
Spot 4 4.0 23:06:34 45° SE 23:07:46 60° ENE 23:12:33 10° N
Cosmos 1354 Rocket 4.5 23:03:56 10° N 23:09:03 48° ENE 23:10:29 38° ESE
Cosmos 2082 Rocket 3.5 23:04:44 10° NW 23:09:44 33° WSW 23:12:49 19° SSW
Okean 1 3.5 23:05:45 10° NNW 23:09:48 69° W 23:10:39 52° SSW
Cosmos 2285 Rocket 4.4 23:12:34 38° SE 23:13:48 42° E 23:19:45 10° NNE
Cosmos 1812 3.4 23:10:38 10° NNW 23:14:22 48° W 23:15:11 40° SW
Okean 1 Rocket 3.0 23:13:53 53° S 23:14:55 90° SE 23:19:25 10° N
Cosmos 1602 4.1 23:16:36 50° ENE 23:16:36 50° ENE 23:20:03 10° NNE
Cosmos 1356 4.2 23:20:42 44° NE 23:20:42 44° NE 23:23:22 10° NNE
Lacrosse 5 1.7 23:15:30 10° SW 23:20:36 80° SE 23:25:43 10° NE
Genesis I 3.1 23:21:07 78° SSW 23:21:22 90° ESE 23:25:25 10° NE
H-2A R/B 2.3 23:20:50 40° S 23:22:42 67° WSW 23:27:58 10° NNW
Meteor 2-4 Rocket 4.0 23:19:50 10° N 23:25:11 52° ENE 23:26:19 45° ESE
Okean 1-7 Rocket 4.0 23:29:49 10° NNW 23:34:13 56° W 23:34:56 49° SW
Cosmos 1302 Rocket 4.0 23:32:20 39° SSW 23:34:20 80° WNW 23:39:40 10° NNE
Cosmos 1544 Rocket 4.4 23:36:48 37° ENE 23:36:48 37° ENE 23:40:09 10° NNE
SL-8 R/B 3.9 23:33:38 10° WNW 23:38:26 68° NNE 23:39:35 49° E
Cosmos 1535 Rocket 4.5 23:37:20 44° S 23:39:34 87° E 23:46:01 10° N
ASTEX 1 3.6 23:38:19 10° N 23:43:16 69° W 23:44:25 51° SW
Meteor 2-14 Rocket 4.4 23:42:33 53° SSE 23:43:55 70° E 23:50:03 10° NNE
Cosmos 1633 3.4 23:44:52 47° NNE 23:44:52 47° NNE 23:47:38 10° NNE
Meteor 2-15 4.4 23:38:40 10° N 23:44:48 74° E 23:46:10 55° SE
Iridium 4 Rocket 3.7 23:42:09 10° N 23:48:07 86° E 23:49:23 58° S
Cosmos 1315 Rocket 3.5 23:51:14 46° NE 23:51:14 46° NE 23:54:10 10° NNE
Lacrosse 5 rocket 2.5 23:49:59 10° WSW 23:53:36 38° NW 23:57:07 10° NE
